Time,TemperatureF,DewpointF,PressureIn,WindDirection,WindDirectionDegrees,WindSpeedMPH,WindSpeedGustMPH,Humidity,HourlyPrecipIn,Conditions,Clouds,dailyrainin,SoftwareType,DateUTC
2013-05-02 00:00:00,44.8,38.0,30.40,South,174,0.0,0.0,77,0.00,,---,0.00,VWS V14.01,2013-05-02 04:00:00,
2013-05-02 00:01:00,44.7,37.9,30.40,South,174,0.0,0.0,77,0.00,,---,0.00,VWS V14.01,2013-05-02 04:01:00,
2013-05-02 00:02:00,44.6,37.8,30.40,South,174,0.0,0.0,77,0.00,,---,0.00,VWS V14.01,2013-05-02 04:02:00,
2013-05-02 00:03:00,44.6,37.8,30.40,South,174,0.0,0.0,77,0.00,,---,0.00,VWS V14.01,2013-05-02 04:03:00,
2013-05-02 00:05:00,44.6,37.8,30.40,South,174,0.0,0.0,77,0.00,,---,0.00,VWS V14.01,2013-05-02 04:05:00,
2013-05-02 00:08:00,44.4,37.7,30.40,South,174,0.0,0.0,77,0.00,,---,0.00,VWS V14.01,2013-05-02 04:08:00,
2013-05-02 00:10:00,44.5,37.8,30.40,South,174,0.0,0.0,77,0.00,,---,0.00,VWS V14.01,2013-05-02 04:10:00,
2013-05-02 00:13:00,44.3,37.9,30.40,South,174,0.0,0.0,78,0.00,,---,0.00,VWS V14.01,2013-05-02 04:13:00,
2013-05-02 00:15:00,44.3,37.9,30.40,South,174,0.0,0.0,78,0.00,,---,0.00,VWS V14.01,2013-05-02 04:15:00,
2013-05-02 00:18:00,44.1,37.7,30.40,South,174,0.0,0.0,78,0.00,,---,0.00,VWS V14.01,2013-05-02 04:18:00,
2013-05-02 00:20:00,44.1,37.7,30.40,South,174,0.0,0.0,78,0.00,,---,0.00,VWS V14.01,2013-05-02 04:20:00,
2013-05-02 00:23:00,44.0,37.6,30.40,South,174,0.0,0.0,78,0.00,,---,0.00,VWS V14.01,2013-05-02 04:23:00,
2013-05-02 00:25:00,44.0,37.6,30.40,South,174,0.0,0.0,78,0.00,,---,0.00,VWS V14.01,2013-05-02 04:25:00,
2013-05-02 00:28:00,43.8,37.7,30.40,South,174,0.0,0.0,79,0.00,,---,0.00,VWS V14.01,2013-05-02 04:28:00,
2013-05-02 00:30:00,43.8,37.7,30.40,South,174,0.0,0.0,79,0.00,,---,0.00,VWS V14.01,2013-05-02 04:30:00,
2013-05-02 00:33:00,43.7,38.0,30.40,South,174,0.0,0.0,80,0.00,,---,0.00,VWS V14.01,2013-05-02 04:33:00,
2013-05-02 00:35:00,43.7,37.9,30.40,South,174,0.0,0.0,80,0.00,,---,0.00,VWS V14.01,2013-05-02 04:35:00,
2013-05-02 00:38:00,43.6,37.5,30.40,South,174,0.0,0.0,79,0.00,,---,0.00,VWS V14.01,2013-05-02 04:38:00,
2013-05-02 00:40:00,43.5,37.4,30.40,South,174,0.0,0.0,79,0.00,,---,0.00,VWS V14.01,2013-05-02 04:40:00,
2013-05-02 00:43:00,43.4,38.0,30.40,South,174,0.0,0.0,81,0.00,,---,0.00,VWS V14.01,2013-05-02 04:43:00,
2013-05-02 00:45:00,43.4,38.0,30.40,South,174,0.0,0.0,81,0.00,,---,0.00,VWS V14.01,2013-05-02 04:45:00,
2013-05-02 00:48:00,43.3,37.9,30.40,South,174,0.0,0.0,81,0.00,,---,0.00,VWS V14.01,2013-05-02 04:48:00,
2013-05-02 00:50:00,43.3,37.9,30.40,South,174,0.0,0.0,81,0.00,,---,0.00,VWS V14.01,2013-05-02 04:50:00,
2013-05-02 00:53:00,43.2,38.1,30.40,South,174,0.0,0.0,82,0.00,,---,0.00,VWS V14.01,2013-05-02 04:53:00,
2013-05-02 00:55:00,43.2,38.1,30.40,South,174,0.0,0.0,82,0.00,,---,0.00,VWS V14.01,2013-05-02 04:55:00,
2013-05-02 00:58:00,43.2,38.1,30.39,South,174,0.0,0.0,82,0.00,,---,0.00,VWS V14.01,2013-05-02 04:58:00,
2013-05-02 01:00:00,43.2,38.1,30.39,South,174,0.0,0.0,82,0.00,,---,0.00,VWS V14.01,2013-05-02 05:00:00,
2013-05-02 01:03:00,43.1,38.0,30.39,South,174,0.0,0.0,82,0.00,,---,0.00,VWS V14.01,2013-05-02 05:03:00,
2013-05-02 01:05:00,43.1,38.0,30.39,South,174,0.0,0.0,82,0.00,,---,0.00,VWS V14.01,2013-05-02 05:05:00,
2013-05-02 01:08:00,43.0,38.2,30.39,South,174,0.0,0.0,83,0.00,,---,0.00,VWS V14.01,2013-05-02 05:08:00,
2013-05-02 01:10:00,43.0,38.2,30.39,South,174,0.0,0.0,83,0.00,,---,0.00,VWS V14.01,2013-05-02 05:10:00,
2013-05-02 01:13:00,43.0,38.5,30.39,South,174,0.0,0.0,84,0.00,,---,0.00,VWS V14.01,2013-05-02 05:13:00,
2013-05-02 01:15:00,43.0,38.5,30.39,South,174,0.0,0.0,84,0.00,,---,0.00,VWS V14.01,2013-05-02 05:15:00,
2013-05-02 01:18:00,43.0,38.8,30.38,South,174,0.0,0.0,85,0.00,,---,0.00,VWS V14.01,2013-05-02 05:18:00,
2013-05-02 01:20:00,43.0,38.8,30.39,South,174,0.0,0.0,85,0.00,,---,0.00,VWS V14.01,2013-05-02 05:20:00,
2013-05-02 01:23:00,42.9,38.7,30.38,South,174,0.0,0.0,85,0.00,,---,0.00,VWS V14.01,2013-05-02 05:23:00,
2013-05-02 01:25:00,42.9,38.7,30.38,South,174,0.0,0.0,85,0.00,,---,0.00,VWS V14.01,2013-05-02 05:25:00,
2013-05-02 01:28:00,42.8,38.6,30.38,South,174,0.0,0.0,85,0.00,,---,0.00,VWS V14.01,2013-05-02 05:28:00,
2013-05-02 01:30:00,42.9,38.7,30.38,South,174,0.0,0.0,85,0.00,,---,0.00,VWS V14.01,2013-05-02 05:30:00,
2013-05-02 01:34:00,42.7,38.5,30.38,South,174,0.0,0.0,85,0.00,,---,0.00,VWS V14.01,2013-05-02 05:34:00,
2013-05-02 01:35:00,42.7,38.5,30.38,South,174,0.0,0.0,85,0.00,,---,0.00,VWS V14.01,2013-05-02 05:35:00,
2013-05-02 01:39:00,42.6,38.4,30.38,South,174,0.0,0.0,85,0.00,,---,0.00,VWS V14.01,2013-05-02 05:39:00,
2013-05-02 01:40:00,42.7,38.5,30.38,South,174,0.0,0.0,85,0.00,,---,0.00,VWS V14.01,2013-05-02 05:40:00,
2013-05-02 01:44:00,42.5,38.6,30.38,South,174,0.0,0.0,86,0.00,,---,0.00,VWS V14.01,2013-05-02 05:44:00,
2013-05-02 01:45:00,42.6,38.4,30.37,South,174,0.0,0.0,85,0.00,,---,0.00,VWS V14.01,2013-05-02 05:45:00,
2013-05-02 01:49:00,42.5,38.6,30.38,South,174,0.0,0.0,86,0.00,,---,0.00,VWS V14.01,2013-05-02 05:49:00,
2013-05-02 01:50:00,42.5,38.6,30.38,South,174,0.0,0.0,86,0.00,,---,0.00,VWS V14.01,2013-05-02 05:50:00,
2013-05-02 01:54:00,42.4,38.5,30.38,South,174,0.0,0.0,86,0.00,,---,0.00,VWS V14.01,2013-05-02 05:54:00,
2013-05-02 01:55:00,42.4,38.5,30.38,South,174,0.0,0.0,86,0.00,,---,0.00,VWS V14.01,2013-05-02 05:55:00,
2013-05-02 01:59:00,42.3,38.4,30.38,South,174,0.0,0.0,86,0.00,,---,0.00,VWS V14.01,2013-05-02 05:59:00,
2013-05-02 02:00:00,42.3,38.4,30.38,South,174,0.0,0.0,86,0.00,,---,0.00,VWS V14.01,2013-05-02 06:00:00,
2013-05-02 02:04:00,42.2,38.3,30.38,South,174,0.0,0.0,86,0.00,,---,0.00,VWS V14.01,2013-05-02 06:04:00,
2013-05-02 02:05:00,42.2,38.3,30.38,South,174,0.0,0.0,86,0.00,,---,0.00,VWS V14.01,2013-05-02 06:05:00,
2013-05-02 02:09:00,42.2,38.6,30.38,South,174,0.0,0.0,87,0.00,,---,0.00,VWS V14.01,2013-05-02 06:09:00,
2013-05-02 02:10:00,42.2,38.6,30.38,South,174,0.0,0.0,87,0.00,,---,0.00,VWS V14.01,2013-05-02 06:10:00,
2013-05-02 02:14:00,42.0,38.4,30.38,South,174,0.0,0.0,87,0.00,,---,0.00,VWS V14.01,2013-05-02 06:14:00,
2013-05-02 02:15:00,42.0,38.4,30.38,South,174,0.0,0.0,87,0.00,,---,0.00,VWS V14.01,2013-05-02 06:15:00,
2013-05-02 02:19:00,41.9,38.3,30.37,South,174,0.0,0.0,87,0.00,,---,0.00,VWS V14.01,2013-05-02 06:19:00,
2013-05-02 02:20:00,42.0,38.4,30.37,South,174,0.0,0.0,87,0.00,,---,0.00,VWS V14.01,2013-05-02 06:20:00,
2013-05-02 02:24:00,41.9,38.3,30.37,South,174,0.0,0.0,87,0.00,,---,0.00,VWS V14.01,2013-05-02 06:24:00,
2013-05-02 02:25:00,41.9,38.3,30.37,South,174,0.0,0.0,87,0.00,,---,0.00,VWS V14.01,2013-05-02 06:25:00,
2013-05-02 02:29:00,41.8,38.2,30.37,South,174,0.0,0.0,87,0.00,,---,0.00,VWS V14.01,2013-05-02 06:29:00,
2013-05-02 02:30:00,41.8,38.2,30.37,South,174,0.0,0.0,87,0.00,,---,0.00,VWS V14.01,2013-05-02 06:30:00,
2013-05-02 02:34:00,41.6,38.0,30.37,South,174,0.0,0.0,87,0.00,,---,0.00,VWS V14.01,2013-05-02 06:34:00,
2013-05-02 02:35:00,41.7,38.1,30.37,South,174,0.0,0.0,87,0.00,,---,0.00,VWS V14.01,2013-05-02 06:35:00,
2013-05-02 02:39:00,41.5,37.9,30.37,South,174,0.0,0.0,87,0.00,,---,0.00,VWS V14.01,2013-05-02 06:39:00,
2013-05-02 02:40:00,41.5,37.9,30.37,South,174,0.0,0.0,87,0.00,,---,0.00,VWS V14.01,2013-05-02 06:40:00,
2013-05-02 02:44:00,41.4,37.8,30.38,South,174,0.0,0.0,87,0.00,,---,0.00,VWS V14.01,2013-05-02 06:44:00,
2013-05-02 02:45:00,41.4,37.8,30.38,South,174,0.0,0.0,87,0.00,,---,0.00,VWS V14.01,2013-05-02 06:45:00,
2013-05-02 02:49:00,41.3,38.0,30.37,South,174,0.0,0.0,88,0.00,,---,0.00,VWS V14.01,2013-05-02 06:49:00,
2013-05-02 02:50:00,41.3,38.0,30.37,South,174,0.0,0.0,88,0.00,,---,0.00,VWS V14.01,2013-05-02 06:50:00,
2013-05-02 02:54:00,41.2,37.9,30.38,South,174,0.0,0.0,88,0.00,,---,0.00,VWS V14.01,2013-05-02 06:54:00,
2013-05-02 02:55:00,41.2,37.9,30.37,South,174,0.0,0.0,88,0.00,,---,0.00,VWS V14.01,2013-05-02 06:55:00,
2013-05-02 02:59:00,41.1,37.8,30.37,South,174,0.0,0.0,88,0.00,,---,0.00,VWS V14.01,2013-05-02 06:59:00,
2013-05-02 03:00:00,41.1,37.8,30.37,South,174,0.0,0.0,88,0.00,,---,0.00,VWS V14.01,2013-05-02 07:00:00,
2013-05-02 03:04:00,41.0,37.7,30.37,South,174,0.0,0.0,88,0.00,,---,0.00,VWS V14.01,2013-05-02 07:04:00,
2013-05-02 03:05:00,41.0,37.7,30.37,South,174,0.0,0.0,88,0.00,,---,0.00,VWS V14.01,2013-05-02 07:05:00,
2013-05-02 03:09:00,40.9,37.6,30.37,South,174,0.0,0.0,88,0.00,,---,0.00,VWS V14.01,2013-05-02 07:09:00,
2013-05-02 03:10:00,41.0,37.7,30.37,South,174,0.0,0.0,88,0.00,,---,0.00,VWS V14.01,2013-05-02 07:10:00,
2013-05-02 03:14:00,40.8,37.5,30.37,South,174,0.0,0.0,88,0.00,,---,0.00,VWS V14.01,2013-05-02 07:14:00,
2013-05-02 03:15:00,40.9,37.6,30.37,South,174,0.0,0.0,88,0.00,,---,0.00,VWS V14.01,2013-05-02 07:15:00,
2013-05-02 03:19:00,40.7,37.4,30.37,South,174,0.0,0.0,88,0.00,,---,0.00,VWS V14.01,2013-05-02 07:19:00,
2013-05-02 03:20:00,40.7,37.4,30.37,South,174,0.0,0.0,88,0.00,,---,0.00,VWS V14.01,2013-05-02 07:20:00,
2013-05-02 03:24:00,40.6,37.6,30.37,South,174,0.0,0.0,89,0.00,,---,0.00,VWS V14.01,2013-05-02 07:24:00,
2013-05-02 03:25:00,40.7,37.4,30.37,South,174,0.0,0.0,88,0.00,,---,0.00,VWS V14.01,2013-05-02 07:25:00,
2013-05-02 03:29:00,40.5,37.5,30.37,South,174,0.0,0.0,89,0.00,,---,0.00,VWS V14.01,2013-05-02 07:29:00,
2013-05-02 03:30:00,40.6,37.6,30.37,South,174,0.0,0.0,89,0.00,,---,0.00,VWS V14.01,2013-05-02 07:30:00,
2013-05-02 03:35:00,40.5,37.5,30.37,South,174,0.0,0.0,89,0.00,,---,0.00,VWS V14.01,2013-05-02 07:35:00,
2013-05-02 03:40:00,40.4,37.4,30.37,South,174,0.0,0.0,89,0.00,,---,0.00,VWS V14.01,2013-05-02 07:40:00,
2013-05-02 03:45:00,40.3,37.3,30.37,South,174,0.0,0.0,89,0.00,,---,0.00,VWS V14.01,2013-05-02 07:45:00,
2013-05-02 03:50:00,40.3,37.3,30.38,South,174,0.0,0.0,89,0.00,,---,0.00,VWS V14.01,2013-05-02 07:50:00,
2013-05-02 03:55:00,40.2,37.5,30.38,South,174,0.0,0.0,90,0.00,,---,0.00,VWS V14.01,2013-05-02 07:55:00,
2013-05-02 04:00:00,40.1,37.4,30.37,South,174,0.0,0.0,90,0.00,,---,0.00,VWS V14.01,2013-05-02 08:00:00,
2013-05-02 04:05:00,40.1,37.4,30.37,South,174,0.0,0.0,90,0.00,,---,0.00,VWS V14.01,2013-05-02 08:05:00,
2013-05-02 04:10:00,40.0,37.3,30.38,South,174,0.0,0.0,90,0.00,,---,0.00,VWS V14.01,2013-05-02 08:10:00,
2013-05-02 04:15:00,39.9,37.2,30.37,South,174,0.0,0.0,90,0.00,,---,0.00,VWS V14.01,2013-05-02 08:15:00,
2013-05-02 04:20:00,39.9,37.2,30.37,South,174,0.0,0.0,90,0.00,,---,0.00,VWS V14.01,2013-05-02 08:20:00,
2013-05-02 04:25:00,39.9,37.5,30.37,South,174,0.0,0.0,91,0.00,,---,0.00,VWS V14.01,2013-05-02 08:25:00,
2013-05-02 04:30:00,39.9,37.5,30.37,South,174,0.0,0.0,91,0.00,,---,0.00,VWS V14.01,2013-05-02 08:30:00,
2013-05-02 04:35:00,39.8,37.4,30.37,South,174,0.0,0.0,91,0.00,,---,0.00,VWS V14.01,2013-05-02 08:35:00,
2013-05-02 04:40:00,39.7,37.3,30.37,South,174,0.0,0.0,91,0.00,,---,0.00,VWS V14.01,2013-05-02 08:40:00,
2013-05-02 04:45:00,39.7,37.3,30.37,South,174,0.0,0.0,91,0.00,,---,0.00,VWS V14.01,2013-05-02 08:45:00,
2013-05-02 04:50:00,39.6,37.2,30.37,South,174,0.0,0.0,91,0.00,,---,0.00,VWS V14.01,2013-05-02 08:50:00,
2013-05-02 04:55:00,39.5,37.1,30.37,South,174,0.0,0.0,91,0.00,,---,0.00,VWS V14.01,2013-05-02 08:55:00,
2013-05-02 05:00:00,39.5,37.1,30.37,South,174,0.0,0.0,91,0.00,,---,0.00,VWS V14.01,2013-05-02 09:00:00,
2013-05-02 05:05:00,39.5,37.1,30.37,South,174,0.0,0.0,91,0.00,,---,0.00,VWS V14.01,2013-05-02 09:05:00,
2013-05-02 05:10:00,39.4,37.3,30.37,South,174,0.0,0.0,92,0.00,,---,0.00,VWS V14.01,2013-05-02 09:10:00,
2013-05-02 05:15:00,39.4,37.3,30.37,South,174,0.0,0.0,92,0.00,,---,0.00,VWS V14.01,2013-05-02 09:15:00,
2013-05-02 05:16:00,39.3,37.2,30.37,South,174,0.0,0.0,92,0.00,,---,0.00,VWS V14.01,2013-05-02 09:16:00,
2013-05-02 05:20:00,39.3,37.2,30.37,South,174,0.0,0.0,92,0.00,,---,0.00,VWS V14.01,2013-05-02 09:20:00,
2013-05-02 05:21:00,39.3,37.2,30.37,South,174,0.0,0.0,92,0.00,,---,0.00,VWS V14.01,2013-05-02 09:21:00,
2013-05-02 05:25:00,39.3,37.2,30.37,South,174,0.0,0.0,92,0.00,,---,0.00,VWS V14.01,2013-05-02 09:25:00,
2013-05-02 05:26:00,39.2,37.1,30.37,South,174,0.0,0.0,92,0.00,,---,0.00,VWS V14.01,2013-05-02 09:26:00,
2013-05-02 05:30:00,39.2,37.1,30.37,South,174,0.0,0.0,92,0.00,,---,0.00,VWS V14.01,2013-05-02 09:30:00,
2013-05-02 05:31:00,39.2,37.1,30.37,South,174,0.0,0.0,92,0.00,,---,0.00,VWS V14.01,2013-05-02 09:31:00,
2013-05-02 05:35:00,39.1,37.0,30.37,South,174,0.0,0.0,92,0.00,,---,0.00,VWS V14.01,2013-05-02 09:35:00,
2013-05-02 05:36:00,39.1,37.0,30.37,South,174,0.0,0.0,92,0.00,,---,0.00,VWS V14.01,2013-05-02 09:36:00,
2013-05-02 05:40:00,39.1,37.0,30.37,South,174,0.0,0.0,92,0.00,,---,0.00,VWS V14.01,2013-05-02 09:40:00,
2013-05-02 05:41:00,39.0,36.9,30.38,South,174,0.0,0.0,92,0.00,,---,0.00,VWS V14.01,2013-05-02 09:41:00,
2013-05-02 05:45:00,39.0,36.9,30.38,South,174,0.0,0.0,92,0.00,,---,0.00,VWS V14.01,2013-05-02 09:45:00,
2013-05-02 05:46:00,39.0,36.9,30.38,South,174,0.0,0.0,92,0.00,,---,0.00,VWS V14.01,2013-05-02 09:46:00,
2013-05-02 05:50:00,39.0,36.9,30.38,South,174,0.0,0.0,92,0.00,,---,0.00,VWS V14.01,2013-05-02 09:50:00,
2013-05-02 05:51:00,39.0,36.9,30.38,South,174,0.0,0.0,92,0.00,,---,0.00,VWS V14.01,2013-05-02 09:51:00,
2013-05-02 05:55:00,39.0,36.9,30.38,South,174,0.0,0.0,92,0.00,,---,0.00,VWS V14.01,2013-05-02 09:55:00,
2013-05-02 05:56:00,38.9,36.8,30.38,South,174,0.0,0.0,92,0.00,,---,0.00,VWS V14.01,2013-05-02 09:56:00,
2013-05-02 06:00:00,39.0,36.9,30.38,South,174,0.0,0.0,92,0.00,,---,0.00,VWS V14.01,2013-05-02 10:00:00,
2013-05-02 06:01:00,39.0,37.2,30.38,South,174,0.0,0.0,93,0.00,,---,0.00,VWS V14.01,2013-05-02 10:01:00,
2013-05-02 06:05:00,39.1,37.0,30.38,South,174,0.0,0.0,92,0.00,,---,0.00,VWS V14.01,2013-05-02 10:05:00,
2013-05-02 06:06:00,39.1,37.2,30.38,South,174,0.0,0.0,93,0.00,,---,0.00,VWS V14.01,2013-05-02 10:06:00,
2013-05-02 06:10:00,39.2,37.3,30.38,South,174,0.0,0.0,93,0.00,,---,0.00,VWS V14.01,2013-05-02 10:10:00,
2013-05-02 06:11:00,39.2,37.3,30.38,South,174,0.0,0.0,93,0.00,,---,0.00,VWS V14.01,2013-05-02 10:11:00,
2013-05-02 06:15:00,39.2,37.3,30.38,South,174,0.0,0.0,93,0.00,,---,0.00,VWS V14.01,2013-05-02 10:15:00,
2013-05-02 06:16:00,39.3,37.5,30.38,South,174,0.0,0.0,93,0.00,,---,0.00,VWS V14.01,2013-05-02 10:16:00,
2013-05-02 06:20:00,39.3,37.5,30.38,South,174,0.0,0.0,93,0.00,,---,0.00,VWS V14.01,2013-05-02 10:20:00,
2013-05-02 06:21:00,39.3,37.5,30.38,South,174,0.0,0.0,93,0.00,,---,0.00,VWS V14.01,2013-05-02 10:21:00,
2013-05-02 06:25:00,39.3,37.5,30.38,South,174,0.0,0.0,93,0.00,,---,0.00,VWS V14.01,2013-05-02 10:25:00,
2013-05-02 06:26:00,39.5,37.7,30.38,South,174,0.0,0.0,93,0.00,,---,0.00,VWS V14.01,2013-05-02 10:26:00,
2013-05-02 06:30:00,39.5,37.7,30.38,South,174,0.0,0.0,93,0.00,,---,0.00,VWS V14.01,2013-05-02 10:30:00,
2013-05-02 06:31:00,39.7,38.1,30.38,South,174,0.0,0.0,94,0.00,,---,0.00,VWS V14.01,2013-05-02 10:31:00,
2013-05-02 06:35:00,39.7,38.1,30.38,South,174,0.0,0.0,94,0.00,,---,0.00,VWS V14.01,2013-05-02 10:35:00,
2013-05-02 06:36:00,39.8,38.2,30.38,South,174,0.0,0.0,94,0.00,,---,0.00,VWS V14.01,2013-05-02 10:36:00,
2013-05-02 06:40:00,39.8,38.2,30.38,South,174,0.0,0.0,94,0.00,,---,0.00,VWS V14.01,2013-05-02 10:40:00,
2013-05-02 06:41:00,40.0,38.4,30.38,South,174,0.0,0.0,94,0.00,,---,0.00,VWS V14.01,2013-05-02 10:41:00,
2013-05-02 06:45:00,40.1,38.5,30.38,South,174,0.0,0.0,94,0.00,,---,0.00,VWS V14.01,2013-05-02 10:45:00,
2013-05-02 06:46:00,40.4,38.8,30.38,South,174,0.0,0.0,94,0.00,,---,0.00,VWS V14.01,2013-05-02 10:46:00,
2013-05-02 06:50:00,40.5,38.9,30.38,South,174,0.0,0.0,94,0.00,,---,0.00,VWS V14.01,2013-05-02 10:50:00,
2013-05-02 06:51:00,40.7,39.1,30.39,South,174,0.0,0.0,94,0.00,,---,0.00,VWS V14.01,2013-05-02 10:51:00,
2013-05-02 06:55:00,40.8,39.2,30.39,South,174,0.0,0.0,94,0.00,,---,0.00,VWS V14.01,2013-05-02 10:55:00,
2013-05-02 06:56:00,41.0,39.4,30.39,South,174,0.0,0.0,94,0.00,,---,0.00,VWS V14.01,2013-05-02 10:56:00,
2013-05-02 07:00:00,41.0,39.4,30.39,South,174,0.0,0.0,94,0.00,,---,0.00,VWS V14.01,2013-05-02 11:00:00,
2013-05-02 07:01:00,41.3,39.7,30.39,South,174,0.0,0.0,94,0.00,,---,0.00,VWS V14.01,2013-05-02 11:01:00,
2013-05-02 07:05:00,41.4,39.8,30.39,South,174,0.0,0.0,94,0.00,,---,0.00,VWS V14.01,2013-05-02 11:05:00,
2013-05-02 07:06:00,41.8,40.2,30.39,South,174,0.0,0.0,94,0.00,,---,0.00,VWS V14.01,2013-05-02 11:06:00,
2013-05-02 07:10:00,42.0,40.7,30.39,South,174,0.0,0.0,95,0.00,,---,0.00,VWS V14.01,2013-05-02 11:10:00,
2013-05-02 07:11:00,42.4,41.1,30.39,South,174,0.0,0.0,95,0.00,,---,0.00,VWS V14.01,2013-05-02 11:11:00,
2013-05-02 07:15:00,42.6,41.3,30.39,South,174,0.0,0.0,95,0.00,,---,0.00,VWS V14.01,2013-05-02 11:15:00,
2013-05-02 07:17:00,43.1,41.8,30.39,South,174,1.0,2.0,95,0.00,,---,0.00,VWS V14.01,2013-05-02 11:17:00,
2013-05-02 07:20:00,43.3,42.0,30.39,South,174,0.0,2.0,95,0.00,,---,0.00,VWS V14.01,2013-05-02 11:20:00,
2013-05-02 07:22:00,43.9,42.6,30.39,WSW,255,0.0,3.0,95,0.00,,---,0.00,VWS V14.01,2013-05-02 11:22:00,
2013-05-02 07:25:00,44.2,42.9,30.39,WSW,255,0.0,3.0,95,0.00,,---,0.00,VWS V14.01,2013-05-02 11:25:00,
2013-05-02 07:27:00,45.0,43.7,30.39,WSW,254,0.0,2.0,95,0.00,,---,0.00,VWS V14.01,2013-05-02 11:27:00,
2013-05-02 07:30:00,45.2,43.9,30.39,WSW,254,1.0,2.0,95,0.00,,---,0.00,VWS V14.01,2013-05-02 11:30:00,
2013-05-02 07:32:00,46.0,44.7,30.39,SW,221,0.0,3.0,95,0.00,,---,0.00,VWS V14.01,2013-05-02 11:32:00,
2013-05-02 07:35:00,46.1,44.8,30.39,WSW,246,0.0,3.0,95,0.00,,---,0.00,VWS V14.01,2013-05-02 11:35:00,
2013-05-02 07:37:00,46.9,45.5,30.39,WSW,246,0.0,1.0,95,0.00,,---,0.00,VWS V14.01,2013-05-02 11:37:00,
2013-05-02 07:40:00,47.1,45.5,30.39,WSW,246,0.0,1.0,94,0.00,,---,0.00,VWS V14.01,2013-05-02 11:40:00,
2013-05-02 07:42:00,47.7,45.8,30.39,WSW,246,0.0,2.0,93,0.00,,---,0.00,VWS V14.01,2013-05-02 11:42:00,
2013-05-02 07:45:00,47.9,46.0,30.39,WSW,246,0.0,2.0,93,0.00,,---,0.00,VWS V14.01,2013-05-02 11:45:00,
2013-05-02 07:47:00,48.7,46.2,30.39,WSW,252,1.0,4.0,91,0.00,,---,0.00,VWS V14.01,2013-05-02 11:47:00,
2013-05-02 07:50:00,48.8,46.0,30.39,WSW,252,0.0,4.0,90,0.00,,---,0.00,VWS V14.01,2013-05-02 11:50:00,
2013-05-02 07:52:00,49.7,46.0,30.39,SW,233,1.0,4.0,87,0.00,,---,0.00,VWS V14.01,2013-05-02 11:52:00,
2013-05-02 07:55:00,49.9,45.9,30.39,SW,233,0.0,4.0,86,0.00,,---,0.00,VWS V14.01,2013-05-02 11:55:00,
2013-05-02 07:57:00,50.6,46.0,30.39,West,265,0.0,3.0,84,0.00,,---,0.00,VWS V14.01,2013-05-02 11:57:00,
2013-05-02 08:00:00,50.8,46.2,30.39,West,265,2.0,3.0,84,0.00,,---,0.00,VWS V14.01,2013-05-02 12:00:00,
2013-05-02 08:02:00,51.5,45.9,30.39,WSW,257,2.0,3.0,81,0.00,,---,0.00,VWS V14.01,2013-05-02 12:02:00,
2013-05-02 08:05:00,51.6,45.6,30.39,WSW,257,2.0,3.0,80,0.00,,---,0.00,VWS V14.01,2013-05-02 12:05:00,
2013-05-02 08:07:00,52.4,45.8,30.39,West,281,0.0,3.0,78,0.00,,---,0.00,VWS V14.01,2013-05-02 12:07:00,
2013-05-02 08:10:00,52.6,45.6,30.39,West,272,1.0,3.0,77,0.00,,---,0.00,VWS V14.01,2013-05-02 12:10:00,
2013-05-02 08:12:00,53.5,45.4,30.39,SW,223,0.0,5.0,74,0.00,,---,0.00,VWS V14.01,2013-05-02 12:12:00,
2013-05-02 08:15:00,53.6,45.5,30.39,SW,223,1.0,5.0,74,0.00,,---,0.00,VWS V14.01,2013-05-02 12:15:00,
2013-05-02 08:17:00,54.3,45.8,30.39,SW,223,0.0,1.0,73,0.00,,---,0.00,VWS V14.01,2013-05-02 12:17:00,
2013-05-02 08:20:00,54.4,45.9,30.39,SW,223,0.0,1.0,73,0.00,,---,0.00,VWS V14.01,2013-05-02 12:20:00,
2013-05-02 08:22:00,55.0,45.8,30.40,SW,223,1.0,1.0,71,0.00,,---,0.00,VWS V14.01,2013-05-02 12:22:00,
2013-05-02 08:25:00,55.1,45.9,30.40,SW,223,1.0,2.0,71,0.00,,---,0.00,VWS V14.01,2013-05-02 12:25:00,
2013-05-02 08:27:00,55.7,46.8,30.40,SW,223,0.0,3.0,72,0.00,,---,0.00,VWS V14.01,2013-05-02 12:27:00,
2013-05-02 08:30:00,55.8,46.2,30.40,SW,223,1.0,3.0,70,0.00,,---,0.00,VWS V14.01,2013-05-02 12:30:00,
2013-05-02 08:32:00,56.4,46.0,30.40,SW,223,1.0,3.0,68,0.00,,---,0.00,VWS V14.01,2013-05-02 12:32:00,
2013-05-02 08:35:00,56.4,46.0,30.40,SW,223,0.0,3.0,68,0.00,,---,0.00,VWS V14.01,2013-05-02 12:35:00,
2013-05-02 08:37:00,56.8,46.0,30.40,SW,223,0.0,1.0,67,0.00,,---,0.00,VWS V14.01,2013-05-02 12:37:00,
2013-05-02 08:40:00,56.9,45.3,30.40,SW,223,0.0,1.0,65,0.00,,---,0.00,VWS V14.01,2013-05-02 12:40:00,
2013-05-02 08:42:00,57.4,45.8,30.39,SW,223,0.0,3.0,65,0.00,,---,0.00,VWS V14.01,2013-05-02 12:42:00,
2013-05-02 08:45:00,57.4,45.3,30.39,SW,223,0.0,3.0,64,0.00,,---,0.00,VWS V14.01,2013-05-02 12:45:00,
2013-05-02 08:47:00,57.8,45.7,30.39,SW,223,0.0,3.0,64,0.00,,---,0.00,VWS V14.01,2013-05-02 12:47:00,
2013-05-02 08:50:00,57.8,45.7,30.39,SW,223,1.0,3.0,64,0.00,,---,0.00,VWS V14.01,2013-05-02 12:50:00,
2013-05-02 08:52:00,58.1,46.8,30.39,SW,223,0.0,3.0,66,0.00,,---,0.00,VWS V14.01,2013-05-02 12:52:00,
2013-05-02 08:55:00,58.1,46.8,30.39,SW,223,0.0,3.0,66,0.00,,---,0.00,VWS V14.01,2013-05-02 12:55:00,
2013-05-02 08:57:00,58.4,45.9,30.39,SW,223,2.0,3.0,63,0.00,,---,0.00,VWS V14.01,2013-05-02 12:57:00,
2013-05-02 09:00:00,58.4,45.9,30.39,SW,223,2.0,3.0,63,0.00,,---,0.00,VWS V14.01,2013-05-02 13:00:00,
2013-05-02 09:02:00,59.0,46.8,30.38,SW,223,2.0,3.0,64,0.00,,---,0.00,VWS V14.01,2013-05-02 13:02:00,
2013-05-02 09:05:00,59.0,46.8,30.38,SW,223,3.0,3.0,64,0.00,,---,0.00,VWS V14.01,2013-05-02 13:05:00,
2013-05-02 09:08:00,59.3,46.3,30.38,SW,223,2.0,3.0,62,0.00,,---,0.00,VWS V14.01,2013-05-02 13:08:00,
2013-05-02 09:10:00,59.3,46.3,30.38,NNW,339,3.0,3.0,62,0.00,,---,0.00,VWS V14.01,2013-05-02 13:10:00,
2013-05-02 09:13:00,59.9,46.4,30.39,NW,314,3.0,3.0,61,0.00,,---,0.00,VWS V14.01,2013-05-02 13:13:00,
2013-05-02 09:15:00,60.0,46.5,30.39,NW,314,1.0,3.0,61,0.00,,---,0.00,VWS V14.01,2013-05-02 13:15:00,
2013-05-02 09:18:00,60.4,46.5,30.39,NW,315,0.0,2.0,60,0.00,,---,0.00,VWS V14.01,2013-05-02 13:18:00,
2013-05-02 09:20:00,60.4,46.5,30.39,NW,315,0.0,2.0,60,0.00,,---,0.00,VWS V14.01,2013-05-02 13:20:00,
2013-05-02 09:23:00,60.9,46.5,30.39,NW,311,0.0,3.0,59,0.00,,---,0.00,VWS V14.01,2013-05-02 13:23:00,
2013-05-02 09:25:00,60.9,46.5,30.39,NW,311,0.0,3.0,59,0.00,,---,0.00,VWS V14.01,2013-05-02 13:25:00,
2013-05-02 09:28:00,61.3,46.0,30.38,NW,315,0.0,1.0,57,0.00,,---,0.00,VWS V14.01,2013-05-02 13:28:00,
2013-05-02 09:30:00,61.3,46.0,30.38,NW,315,0.0,1.0,57,0.00,,---,0.00,VWS V14.01,2013-05-02 13:30:00,
2013-05-02 09:33:00,61.8,46.4,30.38,SW,221,3.0,4.0,57,0.00,,---,0.00,VWS V14.01,2013-05-02 13:33:00,
2013-05-02 09:35:00,61.8,46.4,30.38,SW,221,3.0,4.0,57,0.00,,---,0.00,VWS V14.01,2013-05-02 13:35:00,
2013-05-02 09:38:00,62.2,46.3,30.38,ESE,104,1.0,3.0,56,0.00,,---,0.00,VWS V14.01,2013-05-02 13:38:00,
2013-05-02 09:40:00,62.2,46.3,30.38,ESE,104,1.0,3.0,56,0.00,,---,0.00,VWS V14.01,2013-05-02 13:40:00,
2013-05-02 09:43:00,62.7,47.3,30.38,West,277,0.0,1.0,57,0.00,,---,0.00,VWS V14.01,2013-05-02 13:43:00,
2013-05-02 09:45:00,62.7,47.3,30.38,West,277,1.0,3.0,57,0.00,,---,0.00,VWS V14.01,2013-05-02 13:45:00,
2013-05-02 09:48:00,63.3,46.4,30.38,WSW,248,0.0,0.0,54,0.00,,---,0.00,VWS V14.01,2013-05-02 13:48:00,
2013-05-02 09:50:00,63.3,46.4,30.38,WSW,248,0.0,3.0,54,0.00,,---,0.00,VWS V14.01,2013-05-02 13:50:00,
2013-05-02 09:53:00,63.8,47.8,30.38,West,270,1.0,1.0,56,0.00,,---,0.00,VWS V14.01,2013-05-02 13:53:00,
2013-05-02 09:55:00,63.8,47.8,30.38,West,270,1.0,4.0,56,0.00,,---,0.00,VWS V14.01,2013-05-02 13:55:00,
2013-05-02 09:58:00,64.1,47.1,30.38,West,270,2.0,3.0,54,0.00,,---,0.00,VWS V14.01,2013-05-02 13:58:00,
2013-05-02 10:00:00,64.1,47.1,30.38,West,270,2.0,3.0,54,0.00,,---,0.00,VWS V14.01,2013-05-02 14:00:00,
2013-05-02 10:03:00,64.5,48.5,30.37,West,275,1.0,1.0,56,0.00,,---,0.00,VWS V14.01,2013-05-02 14:03:00,
2013-05-02 10:05:00,64.5,48.5,30.37,West,275,1.0,3.0,56,0.00,,---,0.00,VWS V14.01,2013-05-02 14:05:00,
2013-05-02 10:08:00,64.8,45.7,30.37,West,275,1.0,1.0,50,0.00,,---,0.00,VWS V14.01,2013-05-02 14:08:00,
2013-05-02 10:10:00,64.8,45.7,30.37,West,275,0.0,2.0,50,0.00,,---,0.00,VWS V14.01,2013-05-02 14:10:00,
2013-05-02 10:13:00,65.3,45.7,30.37,SSW,207,3.0,3.0,49,0.00,,---,0.00,VWS V14.01,2013-05-02 14:13:00,
2013-05-02 10:15:00,65.3,45.7,30.37,SSW,201,1.0,4.0,49,0.00,,---,0.00,VWS V14.01,2013-05-02 14:15:00,
2013-05-02 10:18:00,65.9,46.2,30.37,SSW,210,2.0,2.0,49,0.00,,---,0.00,VWS V14.01,2013-05-02 14:18:00,
2013-05-02 10:20:00,65.8,46.1,30.37,SSW,210,1.0,3.0,49,0.00,,---,0.00,VWS V14.01,2013-05-02 14:20:00,
2013-05-02 10:23:00,66.3,47.1,30.37,SSW,210,1.0,2.0,50,0.00,,---,0.00,VWS V14.01,2013-05-02 14:23:00,
2013-05-02 10:25:00,66.3,47.1,30.37,SSW,210,2.0,3.0,50,0.00,,---,0.00,VWS V14.01,2013-05-02 14:25:00,
2013-05-02 10:28:00,66.8,45.4,30.37,WSW,250,1.0,2.0,46,0.00,,---,0.00,VWS V14.01,2013-05-02 14:28:00,
2013-05-02 10:30:00,66.7,45.3,30.37,WSW,250,2.0,4.0,46,0.00,,---,0.00,VWS V14.01,2013-05-02 14:30:00,
2013-05-02 10:33:00,67.2,45.7,30.36,WSW,251,2.0,2.0,46,0.00,,---,0.00,VWS V14.01,2013-05-02 14:33:00,
2013-05-02 10:35:00,67.1,46.8,30.36,WSW,252,0.0,3.0,48,0.00,,---,0.00,VWS V14.01,2013-05-02 14:35:00,
2013-05-02 10:38:00,68.8,44.8,30.36,SW,233,3.0,3.0,42,0.00,,---,0.00,VWS V14.01,2013-05-02 14:38:00,
2013-05-02 10:40:00,68.6,44.0,30.36,SW,233,1.0,5.0,41,0.00,,---,0.00,VWS V14.01,2013-05-02 14:40:00,
2013-05-02 10:43:00,69.6,45.5,30.36,SW,221,0.0,1.0,42,0.00,,---,0.00,VWS V14.01,2013-05-02 14:43:00,
2013-05-02 10:45:00,69.7,45.0,30.36,SW,221,0.0,6.0,41,0.00,,---,0.00,VWS V14.01,2013-05-02 14:45:00,
2013-05-02 10:48:00,69.9,44.5,30.36,WNW,286,3.0,5.0,40,0.00,,---,0.00,VWS V14.01,2013-05-02 14:48:00,
2013-05-02 10:50:00,69.7,46.8,30.36,SW,223,3.0,5.0,44,0.00,,---,0.00,VWS V14.01,2013-05-02 14:50:00,
2013-05-02 10:53:00,70.8,44.6,30.35,West,270,0.0,1.0,39,0.00,,---,0.00,VWS V14.01,2013-05-02 14:53:00,
2013-05-02 10:55:00,70.7,45.2,30.35,West,270,1.0,5.0,40,0.00,,---,0.00,VWS V14.01,2013-05-02 14:55:00,
2013-05-02 10:58:00,71.1,44.2,30.35,West,270,3.0,3.0,38,0.00,,---,0.00,VWS V14.01,2013-05-02 14:58:00,
2013-05-02 11:00:00,71.0,43.4,30.35,West,270,0.0,3.0,37,0.00,,---,0.00,VWS V14.01,2013-05-02 15:00:00,
2013-05-02 11:03:00,71.4,45.8,30.35,West,278,3.0,3.0,40,0.00,,---,0.00,VWS V14.01,2013-05-02 15:03:00,
2013-05-02 11:05:00,71.4,43.8,30.35,West,266,0.0,5.0,37,0.00,,---,0.00,VWS V14.01,2013-05-02 15:05:00,
2013-05-02 11:09:00,71.8,46.2,30.35,NNW,332,0.0,1.0,40,0.00,,---,0.00,VWS V14.01,2013-05-02 15:09:00,
2013-05-02 11:10:00,71.6,44.7,30.35,NNW,332,0.0,9.0,38,0.00,,---,0.00,VWS V14.01,2013-05-02 15:10:00,
2013-05-02 11:14:00,72.6,44.1,30.35,West,272,0.0,2.0,36,0.00,,---,0.00,VWS V14.01,2013-05-02 15:14:00,
2013-05-02 11:15:00,72.6,44.9,30.35,West,271,0.0,4.0,37,0.00,,---,0.00,VWS V14.01,2013-05-02 15:15:00,
2013-05-02 11:19:00,72.7,42.0,30.35,NNW,329,1.0,3.0,33,0.00,,---,0.00,VWS V14.01,2013-05-02 15:19:00,
2013-05-02 11:20:00,73.0,44.5,30.35,NW,323,1.0,5.0,36,0.00,,---,0.00,VWS V14.01,2013-05-02 15:20:00,
2013-05-02 11:24:00,72.9,43.7,30.35,West,261,3.0,4.0,35,0.00,,---,0.00,VWS V14.01,2013-05-02 15:24:00,
2013-05-02 11:25:00,72.6,43.4,30.35,North,349,1.0,3.0,35,0.00,,---,0.00,VWS V14.01,2013-05-02 15:25:00,
2013-05-02 11:29:00,73.0,43.8,30.34,SSE,167,0.0,3.0,35,0.00,,---,0.00,VWS V14.01,2013-05-02 15:29:00,
2013-05-02 11:30:00,72.9,42.1,30.35,SSE,167,2.0,4.0,33,0.00,,---,0.00,VWS V14.01,2013-05-02 15:30:00,
2013-05-02 11:34:00,74.0,42.3,30.34,SW,223,0.0,4.0,32,0.00,,---,0.00,VWS V14.01,2013-05-02 15:34:00,
2013-05-02 11:35:00,73.9,46.0,30.34,West,279,4.0,7.0,37,0.00,,---,0.00,VWS V14.01,2013-05-02 15:35:00,
2013-05-02 11:39:00,73.2,43.2,30.34,South,184,0.0,3.0,34,0.00,,---,0.00,VWS V14.01,2013-05-02 15:39:00,
2013-05-02 11:40:00,73.4,41.0,30.34,SSW,211,2.0,4.0,31,0.00,,---,0.00,VWS V14.01,2013-05-02 15:40:00,
2013-05-02 11:44:00,73.3,44.8,30.34,NNE,16,4.0,5.0,36,0.00,,---,0.00,VWS V14.01,2013-05-02 15:44:00,
2013-05-02 11:45:00,73.1,42.3,30.34,NNE,29,2.0,4.0,33,0.00,,---,0.00,VWS V14.01,2013-05-02 15:45:00,
2013-05-02 11:49:00,74.0,40.6,30.33,ESE,108,0.0,1.0,30,0.00,,---,0.00,VWS V14.01,2013-05-02 15:49:00,
2013-05-02 11:50:00,73.8,42.9,30.34,ESE,108,0.0,5.0,33,0.00,,---,0.00,VWS V14.01,2013-05-02 15:50:00,
2013-05-02 11:54:00,74.1,39.8,30.34,SSW,205,2.0,3.0,29,0.00,,---,0.00,VWS V14.01,2013-05-02 15:54:00,
2013-05-02 11:55:00,74.2,39.9,30.33,SSE,168,2.0,4.0,29,0.00,,---,0.00,VWS V14.01,2013-05-02 15:55:00,
2013-05-02 11:59:00,73.5,40.2,30.33,WSW,242,0.0,3.0,30,0.00,,---,0.00,VWS V14.01,2013-05-02 15:59:00,
2013-05-02 12:00:00,73.6,44.3,30.33,WSW,242,1.0,3.0,35,0.00,,---,0.00,VWS V14.01,2013-05-02 16:00:00,
2013-05-02 12:04:00,74.8,45.3,30.33,West,266,0.0,3.0,35,0.00,,---,0.00,VWS V14.01,2013-05-02 16:04:00,
2013-05-02 12:05:00,74.5,43.5,30.33,West,266,1.0,3.0,33,0.00,,---,0.00,VWS V14.01,2013-05-02 16:05:00,
2013-05-02 12:09:00,75.3,45.8,30.33,SW,230,1.0,4.0,35,0.00,,---,0.00,VWS V14.01,2013-05-02 16:09:00,
2013-05-02 12:10:00,75.4,44.3,30.33,West,260,3.0,4.0,33,0.00,,---,0.00,VWS V14.01,2013-05-02 16:10:00,
2013-05-02 12:14:00,75.1,42.4,30.32,SW,223,1.0,1.0,31,0.00,,---,0.00,VWS V14.01,2013-05-02 16:14:00,
2013-05-02 12:15:00,75.3,42.6,30.33,SW,223,1.0,4.0,31,0.00,,---,0.00,VWS V14.01,2013-05-02 16:15:00,
2013-05-02 12:19:00,75.2,40.8,30.32,NE,53,2.0,2.0,29,0.00,,---,0.00,VWS V14.01,2013-05-02 16:19:00,
2013-05-02 12:20:00,75.3,41.8,30.32,WSW,238,1.0,3.0,30,0.00,,---,0.00,VWS V14.01,2013-05-02 16:20:00,
2013-05-02 12:24:00,75.3,42.6,30.32,NE,50,1.0,4.0,31,0.00,,---,0.00,VWS V14.01,2013-05-02 16:24:00,
2013-05-02 12:25:00,75.1,43.3,30.32,NE,54,2.0,7.0,32,0.00,,---,0.00,VWS V14.01,2013-05-02 16:25:00,
2013-05-02 12:29:00,76.0,42.4,30.32,SSW,192,1.0,3.0,30,0.00,,---,0.00,VWS V14.01,2013-05-02 16:29:00,
2013-05-02 12:30:00,75.7,45.4,30.32,SSW,198,0.0,5.0,34,0.00,,---,0.00,VWS V14.01,2013-05-02 16:30:00,
2013-05-02 12:34:00,76.5,41.9,30.32,ESE,105,1.0,1.0,29,0.00,,---,0.00,VWS V14.01,2013-05-02 16:34:00,
2013-05-02 12:35:00,76.4,42.7,30.32,SE,125,1.0,5.0,30,0.00,,---,0.00,VWS V14.01,2013-05-02 16:35:00,
2013-05-02 12:39:00,76.3,42.6,30.32,SSE,152,0.0,2.0,30,0.00,,---,0.00,VWS V14.01,2013-05-02 16:39:00,
2013-05-02 12:40:00,76.4,40.9,30.32,ESE,105,1.0,2.0,28,0.00,,---,0.00,VWS V14.01,2013-05-02 16:40:00,
2013-05-02 12:44:00,76.6,43.7,30.31,SE,136,0.0,2.0,31,0.00,,---,0.00,VWS V14.01,2013-05-02 16:44:00,
2013-05-02 12:45:00,76.6,42.0,30.32,South,173,0.0,2.0,29,0.00,,---,0.00,VWS V14.01,2013-05-02 16:45:00,
2013-05-02 12:49:00,76.6,42.0,30.31,East,92,3.0,4.0,29,0.00,,---,0.00,VWS V14.01,2013-05-02 16:49:00,
2013-05-02 12:50:00,76.6,44.6,30.31,NNE,17,0.0,4.0,32,0.00,,---,0.00,VWS V14.01,2013-05-02 16:50:00,
2013-05-02 12:55:00,77.4,40.8,30.31,NE,38,0.0,3.0,27,0.00,,---,0.00,VWS V14.01,2013-05-02 16:55:00,
2013-05-02 13:00:00,78.1,41.4,30.31,NE,41,3.0,5.0,27,0.00,,---,0.00,VWS V14.01,2013-05-02 17:00:00,
2013-05-02 13:05:00,77.0,46.5,30.31,North,350,0.0,4.0,34,0.00,,---,0.00,VWS V14.01,2013-05-02 17:05:00,
2013-05-02 13:10:00,76.8,41.3,30.30,NNE,19,1.0,5.0,28,0.00,,---,0.00,VWS V14.01,2013-05-02 17:10:00,
2013-05-02 13:15:00,78.6,42.8,30.30,SSW,198,4.0,9.0,28,0.00,,---,0.00,VWS V14.01,2013-05-02 17:15:00,
2013-05-02 13:20:00,78.8,45.6,30.30,SE,126,6.0,7.0,31,0.00,,---,0.00,VWS V14.01,2013-05-02 17:20:00,
2013-05-02 13:25:00,78.5,49.3,30.31,NW,315,4.0,6.0,36,0.00,,---,0.00,VWS V14.01,2013-05-02 17:25:00,
2013-05-02 13:30:00,78.0,44.1,30.30,WNW,296,1.0,3.0,30,0.00,,---,0.00,VWS V14.01,2013-05-02 17:30:00,
2013-05-02 13:35:00,78.5,44.5,30.30,West,267,2.0,4.0,30,0.00,,---,0.00,VWS V14.01,2013-05-02 17:35:00,
2013-05-02 13:40:00,79.5,43.6,30.30,WNW,286,1.0,6.0,28,0.00,,---,0.00,VWS V14.01,2013-05-02 17:40:00,
2013-05-02 13:45:00,78.4,41.7,30.30,NNW,345,0.0,7.0,27,0.00,,---,0.00,VWS V14.01,2013-05-02 17:45:00,
2013-05-02 13:50:00,76.9,41.3,30.30,SE,131,2.0,9.0,28,0.00,,---,0.00,VWS V14.01,2013-05-02 17:50:00,
2013-05-02 13:55:00,76.3,41.7,30.30,ENE,74,2.0,3.0,29,0.00,,---,0.00,VWS V14.01,2013-05-02 17:55:00,
2013-05-02 14:00:00,76.5,42.8,30.30,SE,128,3.0,6.0,30,0.00,,---,0.00,VWS V14.01,2013-05-02 18:00:00,
2013-05-02 14:05:00,76.6,43.7,30.30,SE,140,4.0,4.0,31,0.00,,---,0.00,VWS V14.01,2013-05-02 18:05:00,
2013-05-02 14:10:00,78.4,42.6,30.30,SE,134,0.0,2.0,28,0.00,,---,0.00,VWS V14.01,2013-05-02 18:10:00,
2013-05-02 14:15:00,78.7,42.9,30.30,ESE,109,1.0,5.0,28,0.00,,---,0.00,VWS V14.01,2013-05-02 18:15:00,
2013-05-02 14:20:00,79.7,43.8,30.30,ENE,74,4.0,6.0,28,0.00,,---,0.00,VWS V14.01,2013-05-02 18:20:00,
2013-05-02 14:25:00,79.7,45.6,30.29,ENE,68,4.0,6.0,30,0.00,,---,0.00,VWS V14.01,2013-05-02 18:25:00,
2013-05-02 14:30:00,80.3,46.1,30.29,ESE,119,0.0,7.0,30,0.00,,---,0.00,VWS V14.01,2013-05-02 18:30:00,
2013-05-02 14:35:00,80.2,48.5,30.29,ESE,114,10.0,16.0,33,0.00,,---,0.00,VWS V14.01,2013-05-02 18:35:00,
2013-05-02 14:40:00,78.7,46.4,30.29,ESE,111,4.0,13.0,32,0.00,,---,0.00,VWS V14.01,2013-05-02 18:40:00,
2013-05-02 14:45:00,78.0,47.4,30.30,NE,43,5.0,16.0,34,0.00,,---,0.00,VWS V14.01,2013-05-02 18:45:00,
2013-05-02 14:50:00,77.9,47.3,30.30,East,96,8.0,14.0,34,0.00,,---,0.00,VWS V14.01,2013-05-02 18:50:00,
2013-05-02 14:55:00,77.6,47.8,30.30,East,80,11.0,14.0,35,0.00,,---,0.00,VWS V14.01,2013-05-02 18:55:00,
2013-05-02 14:56:00,77.2,45.9,30.30,East,101,6.0,15.0,33,0.00,,---,0.00,VWS V14.01,2013-05-02 18:56:00,
2013-05-02 15:00:00,77.1,45.0,30.30,NE,51,7.0,15.0,32,0.00,,---,0.00,VWS V14.01,2013-05-02 19:00:00,
2013-05-02 15:01:00,76.8,43.9,30.30,ENE,74,4.0,11.0,31,0.00,,---,0.00,VWS V14.01,2013-05-02 19:01:00,
2013-05-02 15:05:00,77.1,45.0,30.30,ENE,67,4.0,11.0,32,0.00,,---,0.00,VWS V14.01,2013-05-02 19:05:00,
2013-05-02 15:06:00,76.7,45.5,30.31,NE,50,3.0,16.0,33,0.00,,---,0.00,VWS V14.01,2013-05-02 19:06:00,
2013-05-02 15:10:00,76.5,46.8,30.30,NE,47,12.0,17.0,35,0.00,,---,0.00,VWS V14.01,2013-05-02 19:10:00,
2013-05-02 15:11:00,74.9,46.9,30.31,ENE,73,3.0,16.0,37,0.00,,---,0.00,VWS V14.01,2013-05-02 19:11:00,
2013-05-02 15:15:00,74.5,46.5,30.31,ESE,109,11.0,20.0,37,0.00,,---,0.00,VWS V14.01,2013-05-02 19:15:00,
2013-05-02 15:16:00,73.9,47.4,30.31,East,88,4.0,13.0,39,0.00,,---,0.00,VWS V14.01,2013-05-02 19:16:00,
2013-05-02 15:20:00,73.2,46.1,30.32,East,86,9.0,17.0,38,0.00,,---,0.00,VWS V14.01,2013-05-02 19:20:00,
2013-05-02 15:21:00,71.5,47.2,30.32,NNE,22,4.0,14.0,42,0.00,,---,0.00,VWS V14.01,2013-05-02 19:21:00,
2013-05-02 15:25:00,71.2,47.6,30.32,East,93,6.0,16.0,43,0.00,,---,0.00,VWS V14.01,2013-05-02 19:25:00,
2013-05-02 15:26:00,70.2,47.3,30.32,NNE,20,5.0,13.0,44,0.00,,---,0.00,VWS V14.01,2013-05-02 19:26:00,
2013-05-02 15:30:00,69.4,47.2,30.32,ESE,102,4.0,14.0,45,0.00,,---,0.00,VWS V14.01,2013-05-02 19:30:00,
2013-05-02 15:31:00,68.6,46.4,30.33,NE,38,6.0,16.0,45,0.00,,---,0.00,VWS V14.01,2013-05-02 19:31:00,
2013-05-02 15:35:00,68.1,46.6,30.33,ENE,63,9.0,19.0,46,0.00,,---,0.00,VWS V14.01,2013-05-02 19:35:00,
2013-05-02 15:36:00,67.1,46.2,30.33,North,5,6.0,15.0,47,0.00,,---,0.00,VWS V14.01,2013-05-02 19:36:00,
2013-05-02 15:40:00,66.7,46.4,30.33,SE,141,3.0,15.0,48,0.00,,---,0.00,VWS V14.01,2013-05-02 19:40:00,
2013-05-02 15:41:00,66.3,46.6,30.33,NE,42,3.0,13.0,49,0.00,,---,0.00,VWS V14.01,2013-05-02 19:41:00,
2013-05-02 15:45:00,66.4,46.7,30.33,North,360,5.0,13.0,49,0.00,,---,0.00,VWS V14.01,2013-05-02 19:45:00,
2013-05-02 15:46:00,65.8,46.1,30.33,ENE,64,3.0,14.0,49,0.00,,---,0.00,VWS V14.01,2013-05-02 19:46:00,
2013-05-02 15:50:00,65.2,46.1,30.33,ENE,61,3.0,14.0,50,0.00,,---,0.00,VWS V14.01,2013-05-02 19:50:00,
2013-05-02 15:51:00,64.1,45.6,30.33,NW,315,4.0,16.0,51,0.00,,---,0.00,VWS V14.01,2013-05-02 19:51:00,
2013-05-02 15:55:00,63.8,45.9,30.34,East,90,4.0,16.0,52,0.00,,---,0.00,VWS V14.01,2013-05-02 19:55:00,
2013-05-02 15:56:00,63.4,46.0,30.33,NNE,24,10.0,12.0,53,0.00,,---,0.00,VWS V14.01,2013-05-02 19:56:00,
2013-05-02 16:00:00,63.5,45.6,30.33,NE,51,5.0,12.0,52,0.00,,---,0.00,VWS V14.01,2013-05-02 20:00:00,
2013-05-02 16:01:00,63.2,45.8,30.34,ESE,115,2.0,17.0,53,0.00,,---,0.00,VWS V14.01,2013-05-02 20:01:00,
2013-05-02 16:05:00,63.1,45.7,30.34,NE,38,4.0,17.0,53,0.00,,---,0.00,VWS V14.01,2013-05-02 20:05:00,
2013-05-02 16:06:00,62.8,45.9,30.34,East,89,5.0,15.0,54,0.00,,---,0.00,VWS V14.01,2013-05-02 20:06:00,
2013-05-02 16:10:00,62.9,46.0,30.34,NE,47,7.0,15.0,54,0.00,,---,0.00,VWS V14.01,2013-05-02 20:10:00,
2013-05-02 16:11:00,62.9,46.0,30.34,NNE,30,3.0,15.0,54,0.00,,---,0.00,VWS V14.01,2013-05-02 20:11:00,
2013-05-02 16:15:00,62.7,44.8,30.35,SSE,152,3.0,18.0,52,0.00,,---,0.00,VWS V14.01,2013-05-02 20:15:00,
2013-05-02 16:16:00,62.4,45.1,30.34,East,94,3.0,16.0,53,0.00,,---,0.00,VWS V14.01,2013-05-02 20:16:00,
2013-05-02 16:20:00,62.4,45.1,30.34,East,89,9.0,16.0,53,0.00,,---,0.00,VWS V14.01,2013-05-02 20:20:00,
2013-05-02 16:22:00,62.2,44.9,30.35,East,96,7.0,19.0,53,0.00,,---,0.00,VWS V14.01,2013-05-02 20:22:00,
2013-05-02 16:25:00,62.0,44.7,30.35,NE,53,2.0,19.0,53,0.00,,---,0.00,VWS V14.01,2013-05-02 20:25:00,
2013-05-02 16:27:00,61.5,45.2,30.35,NE,47,6.0,18.0,55,0.00,,---,0.00,VWS V14.01,2013-05-02 20:27:00,
2013-05-02 16:30:00,61.3,45.0,30.35,East,96,6.0,18.0,55,0.00,,---,0.00,VWS V14.01,2013-05-02 20:30:00,
2013-05-02 16:32:00,60.6,45.8,30.35,East,82,11.0,18.0,58,0.00,,---,0.00,VWS V14.01,2013-05-02 20:32:00,
2013-05-02 16:35:00,60.5,45.2,30.35,ESE,113,11.0,18.0,57,0.00,,---,0.00,VWS V14.01,2013-05-02 20:35:00,
2013-05-02 16:37:00,60.0,44.7,30.35,ENE,78,6.0,16.0,57,0.00,,---,0.00,VWS V14.01,2013-05-02 20:37:00,
2013-05-02 16:40:00,59.8,44.5,30.35,SE,138,10.0,16.0,57,0.00,,---,0.00,VWS V14.01,2013-05-02 20:40:00,
2013-05-02 16:42:00,59.0,44.7,30.35,NE,44,9.0,16.0,59,0.00,,---,0.00,VWS V14.01,2013-05-02 20:42:00,
2013-05-02 16:45:00,59.0,44.7,30.35,NE,55,7.0,16.0,59,0.00,,---,0.00,VWS V14.01,2013-05-02 20:45:00,
2013-05-02 16:47:00,58.3,44.5,30.35,SE,135,3.0,14.0,60,0.00,,---,0.00,VWS V14.01,2013-05-02 20:47:00,
2013-05-02 16:50:00,58.2,44.4,30.35,ENE,78,7.0,14.0,60,0.00,,---,0.00,VWS V14.01,2013-05-02 20:50:00,
2013-05-02 16:52:00,57.7,44.8,30.36,ENE,68,2.0,14.0,62,0.00,,---,0.00,VWS V14.01,2013-05-02 20:52:00,
2013-05-02 16:55:00,57.6,44.3,30.36,ENE,70,7.0,14.0,61,0.00,,---,0.00,VWS V14.01,2013-05-02 20:55:00,
2013-05-02 16:57:00,57.1,45.0,30.36,ESE,111,4.0,11.0,64,0.00,,---,0.00,VWS V14.01,2013-05-02 20:57:00,
2013-05-02 17:00:00,57.0,45.0,30.36,ENE,76,10.0,11.0,64,0.00,,---,0.00,VWS V14.01,2013-05-02 21:00:00,
2013-05-02 17:02:00,56.5,44.9,30.36,East,82,5.0,15.0,65,0.00,,---,0.00,VWS V14.01,2013-05-02 21:02:00,
2013-05-02 17:05:00,56.4,44.8,30.36,East,86,4.0,15.0,65,0.00,,---,0.00,VWS V14.01,2013-05-02 21:05:00,
2013-05-02 17:07:00,56.2,44.6,30.36,East,88,4.0,15.0,65,0.00,,---,0.00,VWS V14.01,2013-05-02 21:07:00,
2013-05-02 17:10:00,56.1,44.5,30.36,NE,51,7.0,15.0,65,0.00,,---,0.00,VWS V14.01,2013-05-02 21:10:00,
2013-05-02 17:12:00,55.8,44.6,30.36,NE,38,6.0,13.0,66,0.00,,---,0.00,VWS V14.01,2013-05-02 21:12:00,
2013-05-02 17:15:00,55.8,45.0,30.36,ESE,110,3.0,13.0,67,0.00,,---,0.00,VWS V14.01,2013-05-02 21:15:00,
2013-05-02 17:17:00,55.5,44.3,30.37,NE,51,4.0,15.0,66,0.00,,---,0.00,VWS V14.01,2013-05-02 21:17:00,
2013-05-02 17:20:00,55.5,44.3,30.37,NE,55,4.0,15.0,66,0.00,,---,0.00,VWS V14.01,2013-05-02 21:20:00,
2013-05-02 17:22:00,55.1,44.0,30.36,East,88,6.0,11.0,66,0.00,,---,0.00,VWS V14.01,2013-05-02 21:22:00,
2013-05-02 17:25:00,55.0,43.9,30.36,SE,146,7.0,11.0,66,0.00,,---,0.00,VWS V14.01,2013-05-02 21:25:00,
2013-05-02 17:27:00,54.6,43.9,30.37,NE,43,1.0,12.0,67,0.00,,---,0.00,VWS V14.01,2013-05-02 21:27:00,
2013-05-02 17:30:00,54.5,43.4,30.37,NE,47,2.0,12.0,66,0.00,,---,0.00,VWS V14.01,2013-05-02 21:30:00,
2013-05-02 17:32:00,54.2,43.5,30.37,NE,34,7.0,11.0,67,0.00,,---,0.00,VWS V14.01,2013-05-02 21:32:00,
2013-05-02 17:35:00,54.2,43.5,30.37,ENE,70,6.0,11.0,67,0.00,,---,0.00,VWS V14.01,2013-05-02 21:35:00,
2013-05-02 17:37:00,53.9,43.2,30.38,ENE,75,4.0,14.0,67,0.00,,---,0.00,VWS V14.01,2013-05-02 21:37:00,
2013-05-02 17:40:00,53.9,43.2,30.38,North,355,6.0,14.0,67,0.00,,---,0.00,VWS V14.01,2013-05-02 21:40:00,
2013-05-02 17:42:00,53.6,42.5,30.38,East,90,6.0,13.0,66,0.00,,---,0.00,VWS V14.01,2013-05-02 21:42:00,
2013-05-02 17:45:00,53.7,42.6,30.38,ENE,64,1.0,13.0,66,0.00,,---,0.00,VWS V14.01,2013-05-02 21:45:00,
2013-05-02 17:47:00,53.6,42.9,30.38,NE,46,4.0,11.0,67,0.00,,---,0.00,VWS V14.01,2013-05-02 21:47:00,
2013-05-02 17:50:00,53.6,42.9,30.38,East,100,4.0,11.0,67,0.00,,---,0.00,VWS V14.01,2013-05-02 21:50:00,
2013-05-02 17:52:00,53.4,42.3,30.38,ENE,66,4.0,11.0,66,0.00,,---,0.00,VWS V14.01,2013-05-02 21:52:00,
2013-05-02 17:55:00,53.5,42.4,30.38,NNE,13,6.0,11.0,66,0.00,,---,0.00,VWS V14.01,2013-05-02 21:55:00,
2013-05-02 17:57:00,53.3,42.2,30.38,ESE,119,4.0,10.0,66,0.00,,---,0.00,VWS V14.01,2013-05-02 21:57:00,
2013-05-02 18:00:00,53.3,42.2,30.38,ENE,67,5.0,10.0,66,0.00,,---,0.00,VWS V14.01,2013-05-02 22:00:00,
2013-05-02 18:02:00,53.1,41.3,30.38,East,95,1.0,11.0,64,0.00,,---,0.00,VWS V14.01,2013-05-02 22:02:00,
2013-05-02 18:05:00,53.2,41.3,30.38,East,95,0.0,11.0,64,0.00,,---,0.00,VWS V14.01,2013-05-02 22:05:00,
2013-05-02 18:07:00,53.1,41.3,30.38,SE,125,3.0,5.0,64,0.00,,---,0.00,VWS V14.01,2013-05-02 22:07:00,
2013-05-02 18:10:00,53.1,41.3,30.38,SE,136,4.0,5.0,64,0.00,,---,0.00,VWS V14.01,2013-05-02 22:10:00,
2013-05-02 18:13:00,53.0,40.8,30.39,NE,53,1.0,11.0,63,0.00,,---,0.00,VWS V14.01,2013-05-02 22:13:00,
2013-05-02 18:15:00,52.9,40.7,30.39,NE,50,0.0,11.0,63,0.00,,---,0.00,VWS V14.01,2013-05-02 22:15:00,
2013-05-02 18:18:00,52.7,40.5,30.39,NNE,23,4.0,13.0,63,0.00,,---,0.00,VWS V14.01,2013-05-02 22:18:00,
2013-05-02 18:20:00,52.7,40.5,30.39,ENE,74,2.0,13.0,63,0.00,,---,0.00,VWS V14.01,2013-05-02 22:20:00,
2013-05-02 18:23:00,52.6,40.4,30.39,ENE,61,1.0,6.0,63,0.00,,---,0.00,VWS V14.01,2013-05-02 22:23:00,
2013-05-02 18:25:00,52.6,40.4,30.39,ENE,61,2.0,6.0,63,0.00,,---,0.00,VWS V14.01,2013-05-02 22:25:00,
2013-05-02 18:28:00,52.4,41.0,30.39,SE,142,5.0,6.0,65,0.00,,---,0.00,VWS V14.01,2013-05-02 22:28:00,
2013-05-02 18:30:00,52.4,41.0,30.39,SE,142,5.0,6.0,65,0.00,,---,0.00,VWS V14.01,2013-05-02 22:30:00,
2013-05-02 18:33:00,52.2,40.8,30.39,NE,39,3.0,10.0,65,0.00,,---,0.00,VWS V14.01,2013-05-02 22:33:00,
2013-05-02 18:35:00,52.2,40.8,30.39,NE,39,3.0,10.0,65,0.00,,---,0.00,VWS V14.01,2013-05-02 22:35:00,
2013-05-02 18:38:00,52.0,41.0,30.39,East,98,3.0,3.0,66,0.00,,---,0.00,VWS V14.01,2013-05-02 22:38:00,
2013-05-02 18:40:00,52.0,41.0,30.39,East,98,3.0,7.0,66,0.00,,---,0.00,VWS V14.01,2013-05-02 22:40:00,
2013-05-02 18:43:00,51.7,40.7,30.40,NE,51,10.0,10.0,66,0.00,,---,0.00,VWS V14.01,2013-05-02 22:43:00,
2013-05-02 18:45:00,51.7,40.7,30.40,NE,40,2.0,10.0,66,0.00,,---,0.00,VWS V14.01,2013-05-02 22:45:00,
2013-05-02 18:48:00,51.3,40.3,30.40,ENE,59,2.0,2.0,66,0.00,,---,0.00,VWS V14.01,2013-05-02 22:48:00,
2013-05-02 18:50:00,51.4,40.4,30.40,ENE,59,1.0,10.0,66,0.00,,---,0.00,VWS V14.01,2013-05-02 22:50:00,
2013-05-02 18:53:00,51.0,40.1,30.40,ENE,69,2.0,3.0,66,0.00,,---,0.00,VWS V14.01,2013-05-02 22:53:00,
2013-05-02 18:55:00,51.0,40.1,30.40,NE,47,2.0,11.0,66,0.00,,---,0.00,VWS V14.01,2013-05-02 22:55:00,
2013-05-02 18:58:00,50.9,40.3,30.40,NE,38,5.0,5.0,67,0.00,,---,0.00,VWS V14.01,2013-05-02 22:58:00,
2013-05-02 19:00:00,50.8,40.2,30.40,ENE,62,0.0,7.0,67,0.00,,---,0.00,VWS V14.01,2013-05-02 23:00:00,
2013-05-02 19:03:00,50.8,40.6,30.41,NE,47,3.0,6.0,68,0.00,,---,0.00,VWS V14.01,2013-05-02 23:03:00,
2013-05-02 19:05:00,50.8,40.6,30.41,ESE,105,5.0,8.0,68,0.00,,---,0.00,VWS V14.01,2013-05-02 23:05:00,
2013-05-02 19:08:00,50.6,40.1,30.41,ENE,60,0.0,2.0,67,0.00,,---,0.00,VWS V14.01,2013-05-02 23:08:00,
2013-05-02 19:10:00,50.6,40.1,30.41,ENE,60,2.0,8.0,67,0.00,,---,0.00,VWS V14.01,2013-05-02 23:10:00,
2013-05-02 19:13:00,50.5,40.3,30.41,ENE,67,1.0,7.0,68,0.00,,---,0.00,VWS V14.01,2013-05-02 23:13:00,
2013-05-02 19:15:00,50.5,40.3,30.41,NE,46,6.0,7.0,68,0.00,,---,0.00,VWS V14.01,2013-05-02 23:15:00,
2013-05-02 19:18:00,50.4,39.5,30.42,SE,132,1.0,4.0,66,0.00,,---,0.00,VWS V14.01,2013-05-02 23:18:00,
2013-05-02 19:20:00,50.4,39.5,30.41,East,84,4.0,10.0,66,0.00,,---,0.00,VWS V14.01,2013-05-02 23:20:00,
2013-05-02 19:23:00,50.2,40.1,30.41,SE,134,2.0,2.0,68,0.00,,---,0.00,VWS V14.01,2013-05-02 23:23:00,
2013-05-02 19:25:00,50.3,40.2,30.42,East,86,1.0,9.0,68,0.00,,---,0.00,VWS V14.01,2013-05-02 23:25:00,
2013-05-02 19:28:00,50.1,40.0,30.42,NE,45,0.0,2.0,68,0.00,,---,0.00,VWS V14.01,2013-05-02 23:28:00,
2013-05-02 19:30:00,50.1,40.0,30.42,North,5,2.0,6.0,68,0.00,,---,0.00,VWS V14.01,2013-05-02 23:30:00,
2013-05-02 19:33:00,50.1,40.0,30.42,ENE,57,4.0,6.0,68,0.00,,---,0.00,VWS V14.01,2013-05-02 23:33:00,
2013-05-02 19:35:00,50.1,40.0,30.42,ENE,76,0.0,6.0,68,0.00,,---,0.00,VWS V14.01,2013-05-02 23:35:00,
2013-05-02 19:38:00,50.0,39.9,30.42,ENE,67,3.0,5.0,68,0.00,,---,0.00,VWS V14.01,2013-05-02 23:38:00,
2013-05-02 19:40:00,50.0,40.2,30.42,ENE,65,2.0,9.0,69,0.00,,---,0.00,VWS V14.01,2013-05-02 23:40:00,
2013-05-02 19:43:00,49.9,40.2,30.42,East,82,1.0,2.0,69,0.00,,---,0.00,VWS V14.01,2013-05-02 23:43:00,
2013-05-02 19:45:00,49.9,40.2,30.43,ENE,74,0.0,5.0,69,0.00,,---,0.00,VWS V14.01,2013-05-02 23:45:00,
2013-05-02 19:48:00,49.9,40.2,30.42,NE,38,1.0,3.0,69,0.00,,---,0.00,VWS V14.01,2013-05-02 23:48:00,
2013-05-02 19:50:00,49.9,40.2,30.42,SE,128,1.0,7.0,69,0.00,,---,0.00,VWS V14.01,2013-05-02 23:50:00,
2013-05-02 19:53:00,49.8,40.4,30.43,East,94,2.0,2.0,70,0.00,,---,0.00,VWS V14.01,2013-05-02 23:53:00,
2013-05-02 19:55:00,49.8,40.4,30.43,East,94,0.0,5.0,70,0.00,,---,0.00,VWS V14.01,2013-05-02 23:55:00,
2013-05-02 19:58:00,49.8,40.0,30.43,ENE,61,0.0,1.0,69,0.00,,---,0.00,VWS V14.01,2013-05-02 23:58:00,
2013-05-02 20:00:00,49.9,40.2,30.43,ENE,61,1.0,5.0,69,0.00,,---,0.00,VWS V14.01,2013-05-03 00:00:00,
2013-05-02 20:03:00,49.9,40.5,30.43,ESE,123,0.0,1.0,70,0.00,,---,0.00,VWS V14.01,2013-05-03 00:03:00,
2013-05-02 20:05:00,49.9,40.5,30.43,ESE,123,0.0,3.0,70,0.00,,---,0.00,VWS V14.01,2013-05-03 00:05:00,
2013-05-02 20:09:00,49.8,40.4,30.43,ESE,114,0.0,2.0,70,0.00,,---,0.00,VWS V14.01,2013-05-03 00:09:00,
2013-05-02 20:10:00,49.8,40.4,30.43,ESE,116,0.0,4.0,70,0.00,,---,0.00,VWS V14.01,2013-05-03 00:10:00,
2013-05-02 20:14:00,49.8,40.4,30.44,SE,128,1.0,2.0,70,0.00,,---,0.00,VWS V14.01,2013-05-03 00:14:00,
2013-05-02 20:15:00,49.8,40.0,30.44,SE,128,1.0,4.0,69,0.00,,---,0.00,VWS V14.01,2013-05-03 00:15:00,
2013-05-02 20:19:00,49.7,40.0,30.43,SE,125,0.0,1.0,69,0.00,,---,0.00,VWS V14.01,2013-05-03 00:19:00,
2013-05-02 20:20:00,49.7,40.0,30.43,SE,125,1.0,3.0,69,0.00,,---,0.00,VWS V14.01,2013-05-03 00:20:00,
2013-05-02 20:24:00,49.7,40.3,30.43,SE,136,2.0,2.0,70,0.00,,---,0.00,VWS V14.01,2013-05-03 00:24:00,
2013-05-02 20:25:00,49.7,40.0,30.43,SE,135,0.0,3.0,69,0.00,,---,0.00,VWS V14.01,2013-05-03 00:25:00,
2013-05-02 20:29:00,49.7,40.3,30.43,SE,135,4.0,4.0,70,0.00,,---,0.00,VWS V14.01,2013-05-03 00:29:00,
2013-05-02 20:30:00,49.7,40.3,30.43,SE,142,3.0,5.0,70,0.00,,---,0.00,VWS V14.01,2013-05-03 00:30:00,
2013-05-02 20:34:00,49.7,40.3,30.43,SE,132,0.0,4.0,70,0.00,,---,0.00,VWS V14.01,2013-05-03 00:34:00,
2013-05-02 20:35:00,49.7,40.3,30.43,East,90,2.0,5.0,70,0.00,,---,0.00,VWS V14.01,2013-05-03 00:35:00,
2013-05-02 20:39:00,49.7,40.0,30.43,SE,130,0.0,3.0,69,0.00,,---,0.00,VWS V14.01,2013-05-03 00:39:00,
2013-05-02 20:40:00,49.7,40.0,30.43,SE,132,0.0,4.0,69,0.00,,---,0.00,VWS V14.01,2013-05-03 00:40:00,
2013-05-02 20:44:00,49.7,40.0,30.43,SE,133,0.0,2.0,69,0.00,,---,0.00,VWS V14.01,2013-05-03 00:44:00,
2013-05-02 20:45:00,49.7,40.0,30.43,SE,133,2.0,4.0,69,0.00,,---,0.00,VWS V14.01,2013-05-03 00:45:00,
2013-05-02 20:49:00,49.7,39.6,30.43,SE,134,0.0,0.0,68,0.00,,---,0.00,VWS V14.01,2013-05-03 00:49:00,
2013-05-02 20:50:00,49.7,39.6,30.43,SE,134,0.0,2.0,68,0.00,,---,0.00,VWS V14.01,2013-05-03 00:50:00,
2013-05-02 20:54:00,49.7,39.6,30.43,SE,134,0.0,0.0,68,0.00,,---,0.00,VWS V14.01,2013-05-03 00:54:00,
2013-05-02 20:55:00,49.7,39.6,30.43,SE,134,0.0,1.0,68,0.00,,---,0.00,VWS V14.01,2013-05-03 00:55:00,
2013-05-02 20:59:00,49.8,40.0,30.43,SE,134,0.0,0.0,69,0.00,,---,0.00,VWS V14.01,2013-05-03 00:59:00,
2013-05-02 21:00:00,49.8,40.0,30.43,SE,134,0.0,1.0,69,0.00,,---,0.00,VWS V14.01,2013-05-03 01:00:00,
2013-05-02 21:04:00,49.8,39.7,30.43,SE,134,0.0,0.0,68,0.00,,---,0.00,VWS V14.01,2013-05-03 01:04:00,
2013-05-02 21:05:00,49.8,40.0,30.43,SE,134,0.0,0.0,69,0.00,,---,0.00,VWS V14.01,2013-05-03 01:05:00,
2013-05-02 21:09:00,49.9,40.2,30.44,SSE,168,0.0,3.0,69,0.00,,---,0.00,VWS V14.01,2013-05-03 01:09:00,
2013-05-02 21:10:00,49.9,39.8,30.43,SSE,168,3.0,3.0,68,0.00,,---,0.00,VWS V14.01,2013-05-03 01:10:00,
2013-05-02 21:14:00,49.9,39.4,30.43,SSE,168,0.0,1.0,67,0.00,,---,0.00,VWS V14.01,2013-05-03 01:14:00,
2013-05-02 21:15:00,49.9,39.0,30.43,SSE,168,1.0,3.0,66,0.00,,---,0.00,VWS V14.01,2013-05-03 01:15:00,
2013-05-02 21:19:00,50.0,39.5,30.43,SSE,168,0.0,0.0,67,0.00,,---,0.00,VWS V14.01,2013-05-03 01:19:00,
2013-05-02 21:20:00,50.0,39.5,30.43,SSE,168,0.0,1.0,67,0.00,,---,0.00,VWS V14.01,2013-05-03 01:20:00,
2013-05-02 21:24:00,50.1,40.0,30.44,SSE,168,1.0,2.0,68,0.00,,---,0.00,VWS V14.01,2013-05-03 01:24:00,
2013-05-02 21:25:00,50.0,39.9,30.43,SSE,168,0.0,2.0,68,0.00,,---,0.00,VWS V14.01,2013-05-03 01:25:00,
2013-05-02 21:29:00,50.0,39.5,30.44,SSE,168,0.0,1.0,67,0.00,,---,0.00,VWS V14.01,2013-05-03 01:29:00,
2013-05-02 21:30:00,50.0,39.5,30.44,SSE,168,0.0,2.0,67,0.00,,---,0.00,VWS V14.01,2013-05-03 01:30:00,
2013-05-02 21:34:00,50.1,40.0,30.44,SSE,168,0.0,1.0,68,0.00,,---,0.00,VWS V14.01,2013-05-03 01:34:00,
2013-05-02 21:35:00,50.1,40.0,30.44,SSE,168,0.0,1.0,68,0.00,,---,0.00,VWS V14.01,2013-05-03 01:35:00,
2013-05-02 21:39:00,50.1,39.6,30.44,ESE,115,0.0,3.0,67,0.00,,---,0.00,VWS V14.01,2013-05-03 01:39:00,
2013-05-02 21:40:00,50.1,40.0,30.45,SSE,168,0.0,1.0,68,0.00,,---,0.00,VWS V14.01,2013-05-03 01:40:00,
2013-05-02 21:44:00,50.1,39.6,30.45,ESE,103,2.0,2.0,67,0.00,,---,0.00,VWS V14.01,2013-05-03 01:44:00,
2013-05-02 21:45:00,50.1,39.6,30.45,ESE,114,0.0,3.0,67,0.00,,---,0.00,VWS V14.01,2013-05-03 01:45:00,
2013-05-02 21:49:00,50.0,40.2,30.45,ENE,61,2.0,3.0,69,0.00,,---,0.00,VWS V14.01,2013-05-03 01:49:00,
2013-05-02 21:50:00,50.0,39.5,30.45,ESE,103,1.0,2.0,67,0.00,,---,0.00,VWS V14.01,2013-05-03 01:50:00,
2013-05-02 21:54:00,49.9,39.4,30.45,ESE,123,0.0,2.0,67,0.00,,---,0.00,VWS V14.01,2013-05-03 01:54:00,
2013-05-02 21:55:00,50.0,39.5,30.45,ESE,123,1.0,4.0,67,0.00,,---,0.00,VWS V14.01,2013-05-03 01:55:00,
2013-05-02 21:59:00,49.8,39.3,30.45,ESE,103,0.0,0.0,67,0.00,,---,0.00,VWS V14.01,2013-05-03 01:59:00,
2013-05-02 22:00:00,49.9,39.4,30.45,ESE,103,0.0,2.0,67,0.00,,---,0.00,VWS V14.01,2013-05-03 02:00:00,
2013-05-02 22:04:00,49.7,39.2,30.45,ESE,104,0.0,0.0,67,0.00,,---,0.00,VWS V14.01,2013-05-03 02:04:00,
2013-05-02 22:05:00,49.7,39.2,30.45,ESE,103,0.0,0.0,67,0.00,,---,0.00,VWS V14.01,2013-05-03 02:05:00,
2013-05-02 22:10:00,49.4,39.3,30.45,ESE,103,0.0,0.0,68,0.00,,---,0.00,VWS V14.01,2013-05-03 02:10:00,
2013-05-02 22:15:00,49.2,39.5,30.45,ESE,103,0.0,0.0,69,0.00,,---,0.00,VWS V14.01,2013-05-03 02:15:00,
2013-05-02 22:20:00,49.0,39.3,30.45,ESE,104,0.0,0.0,69,0.00,,---,0.00,VWS V14.01,2013-05-03 02:20:00,
2013-05-02 22:25:00,48.8,39.1,30.45,ESE,103,0.0,0.0,69,0.00,,---,0.00,VWS V14.01,2013-05-03 02:25:00,
2013-05-02 22:30:00,48.5,39.2,30.44,ESE,104,0.0,0.0,70,0.00,,---,0.00,VWS V14.01,2013-05-03 02:30:00,
2013-05-02 22:35:00,48.2,39.2,30.44,ESE,103,0.0,0.0,71,0.00,,---,0.00,VWS V14.01,2013-05-03 02:35:00,
2013-05-02 22:40:00,47.9,39.7,30.44,ESE,103,0.0,0.0,73,0.00,,---,0.00,VWS V14.01,2013-05-03 02:40:00,
2013-05-02 22:45:00,47.5,39.6,30.45,ESE,103,0.0,0.0,74,0.00,,---,0.00,VWS V14.01,2013-05-03 02:45:00,
2013-05-02 22:50:00,47.2,39.3,30.44,ESE,103,0.0,0.0,74,0.00,,---,0.00,VWS V14.01,2013-05-03 02:50:00,
2013-05-02 22:55:00,46.8,39.0,30.45,ESE,103,0.0,0.0,74,0.00,,---,0.00,VWS V14.01,2013-05-03 02:55:00,
2013-05-02 23:00:00,46.5,39.0,30.44,ESE,103,0.0,0.0,75,0.00,,---,0.00,VWS V14.01,2013-05-03 03:00:00,
2013-05-02 23:05:00,46.3,39.5,30.44,ESE,103,0.0,0.0,77,0.00,,---,0.00,VWS V14.01,2013-05-03 03:05:00,
2013-05-02 23:10:00,46.1,39.6,30.44,ESE,103,0.0,0.0,78,0.00,,---,0.00,VWS V14.01,2013-05-03 03:10:00,
2013-05-02 23:15:00,45.9,39.1,30.44,ESE,103,0.0,0.0,77,0.00,,---,0.00,VWS V14.01,2013-05-03 03:15:00,
2013-05-02 23:20:00,45.7,38.9,30.45,ESE,103,0.0,0.0,77,0.00,,---,0.00,VWS V14.01,2013-05-03 03:20:00,
2013-05-02 23:25:00,45.4,39.0,30.45,ESE,103,0.0,0.0,78,0.00,,---,0.00,VWS V14.01,2013-05-03 03:25:00,
2013-05-02 23:30:00,45.3,38.9,30.45,ESE,104,0.0,0.0,78,0.00,,---,0.00,VWS V14.01,2013-05-03 03:30:00,
2013-05-02 23:35:00,45.1,39.0,30.45,ESE,103,0.0,0.0,79,0.00,,---,0.00,VWS V14.01,2013-05-03 03:35:00,
2013-05-02 23:40:00,45.0,38.9,30.45,ESE,104,0.0,0.0,79,0.00,,---,0.00,VWS V14.01,2013-05-03 03:40:00,
2013-05-02 23:45:00,44.8,39.0,30.45,ESE,103,0.0,0.0,80,0.00,,---,0.00,VWS V14.01,2013-05-03 03:45:00,
2013-05-02 23:50:00,44.6,39.1,30.45,ESE,103,0.0,0.0,81,0.00,,---,0.00,VWS V14.01,2013-05-03 03:50:00,
2013-05-02 23:55:00,44.4,38.9,30.45,ESE,103,0.0,0.0,81,0.00,,---,0.00,VWS V14.01,2013-05-03 03:55:00,